Theta_e
338 337 335 335 333 334 333 332 332 332 331 328 331 330 330 330 331 332 333 334 334 333 332 331 331 332 332 330 329 329 328 329 330 330 330 328 327 325 324 322 321 320 320
337 336 334 332 331 332 334 333 333 332 331 328 327 328 327 328 330 330 331 333 333 333 332 331 331 331 332 331 329 330 330 330 329 329 328 326 324 322 321 320 319 319 318
335 336 333 332 331 331 333 333 332 330 328 327 326 325 327 327 329 330 332 332 332 332 331 332 330 330 331 331 330 331 330 329 329 328 327 324 322 321 320 318 318 317 315
335 335 334 332 331 330 332 332 330 329 325 325 324 325 326 326 328 330 331 331 331 330 330 330 329 328 328 330 330 330 329 329 328 327 325 322 321 320 319 317 316 315 314
334 335 332 332 330 330 330 330 328 327 325 323 321 322 322 323 324 325 326 329 329 329 329 330 329 328 326 329 330 329 328 327 326 324 322 321 319 318 317 316 316 314 314
334 334 332 331 330 329 328 328 328 324 322 321 320 320 320 320 322 323 324 325 326 329 329 331 327 327 327 329 328 328 326 325 323 322 321 319 317 317 316 315 314 313 313
333 332 330 329 329 329 327 326 325 323 318 319 318 316 317 319 321 322 324 324 325 327 330 330 327 328 329 328 328 327 325 324 321 320 318 318 317 316 315 314 313 312 312
333 332 331 329 328 327 325 325 325 317 316 317 318 317 318 316 317 319 321 324 326 326 328 329 328 329 329 328 327 325 323 322 320 319 318 317 316 315 314 313 312 311 310
332 331 330 329 328 327 326 324 323 322 316 317 319 321 320 324 314 316 319 322 324 326 328 328 329 329 328 326 325 323 321 320 319 319 317 316 315 314 313 312 311 310 309
332 331 330 329 328 327 326 325 324 322 319 317 318 317 318 318 322 318 315 318 321 323 326 328 328 328 327 325 322 320 319 318 318 318 317 315 314 313 312 311 310 309 308
331 331 330 329 327 327 325 325 323 320 320 319 319 317 316 317 317 317 315 312 316 319 324 325 326 324 324 323 320 319 317 317 316 317 316 315 313 312 311 310 309 308 307
327 328 330 328 328 327 326 325 323 323 320 320 320 320 319 318 316 317 314 309 314 315 318 320 321 321 322 320 319 317 316 316 315 317 315 315 313 312 311 309 308 307 306
325 324 326 328 326 327 326 325 322 322 321 319 319 321 320 320 321 319 318 310 310 311 314 317 318 318 318 318 316 315 316 315 315 315 316 316 314 312 310 309 307 306 305
326 325 325 324 326 327 324 322 321 320 320 319 318 319 321 320 320 321 319 313 306 304 308 314 316 316 317 316 315 314 314 313 313 313 316 316 314 311 309 308 306 305 304
327 326 326 324 323 322 323 323 320 318 319 319 318 318 319 319 320 319 319 318 319 313 308 312 315 316 315 315 314 313 313 312 311 311 311 314 314 310 308 307 305 304 303
327 326 325 325 323 322 320 320 319 318 317 318 317 317 318 317 319 319 318 318 318 317 320 315 316 317 315 314 313 313 313 312 312 310 309 310 311 310 307 306 305 303 302
322 325 325 325 324 323 321 320 318 318 317 317 317 316 317 317 316 318 318 316 316 317 317 315 315 316 314 313 312 311 312 311 311 310 310 309 309 308 307 306 304 301 300
315 318 321 323 323 323 322 321 320 318 317 316 317 316 316 316 316 316 316 316 315 315 316 313 312 313 314 313 312 311 310 310 310 309 309 308 307 307 307 305 304 301 299
308 310 314 316 322 322 322 322 321 319 318 318 317 316 316 315 315 315 313 313 313 313 314 313 310 309 309 311 309 309 309 309 308 308 308 307 306 306 305 304 303 300 298
301 304 307 311 313 318 321 320 320 319 319 317 317 317 317 316 316 315 313 313 313 311 311 309 307 305 303 304 304 304 303 306 307 306 305 305 305 304 304 304 303 301 295
295 298 301 304 307 309 314 319 319 318 317 317 317 316 318 318 317 316 315 312 313 310 309 306 303 301 299 299 299 302 303 302 303 304 303 303 304 303 303 302 301 299 295
290 293 296 298 302 303 304 312 311 315 317 317 316 316 316 316 316 316 316 316 315 312 310 308 307 303 301 302 302 301 301 299 297 302 301 301 302 301 301 299 298 298 296
287 288 290 292 295 298 298 300 306 309 311 315 316 316 315 315 316 314 315 316 315 315 316 310 310 306 307 303 304 300 300 300 302 302 300 299 298 298 299 298 297 297 293
286 286 287 288 289 292 294 295 297 302 306 308 313 315 315 315 314 315 313 311 311 310 310 313 311 313 311 309 307 308 303 299 299 300 301 298 295 295 295 295 296 293 292
285 286 286 287 287 288 290 291 293 296 299 303 306 309 312 313 313 313 312 311 309 309 311 311 311 310 311 307 307 300 297 296 296 295 297 297 292 294 292 292 294 292 291
284 284 285 286 286 287 288 289 291 293 294 296 299 304 306 307 311 312 311 310 308 308 307 307 308 308 307 306 304 307 300 297 299 292 294 295 291 292 287 289 291 291 291
Wind_Speed
35 34 32 30 27 24 23 24 23 22 20 20 21 19 18 16 16 16 16 16 16 14 13 13 15 16 16 16 17 19 19 20 20 24 22 20 20 19 16 16 15 13 14
37 34 33 31 27 24 25 25 24 23 22 21 20 18 17 16 15 15 14 14 14 14 13 12 15 16 16 16 17 18 17 20 21 21 20 18 18 17 17 16 15 16 16
35 36 34 31 26 26 27 26 24 23 22 21 20 17 16 15 15 15 14 14 14 14 13 13 15 17 17 18 20 21 22 23 22 19 18 17 15 16 16 14 15 15 14
38 36 36 33 29 28 28 27 26 25 24 22 19 17 15 14 13 14 14 14 14 14 13 13 17 20 21 20 22 23 23 22 19 17 16 16 14 14 15 14 13 14 12
36 37 36 34 32 31 30 28 28 27 25 22 19 15 12 10 8 9 11 12 12 13 12 14 18 19 20 23 22 22 21 20 17 16 13 15 14 14 14 15 14 12 12
36 36 36 35 33 33 31 31 30 26 26 25 20 15 11 8 7 7 8 9 11 13 13 17 19 20 22 23 20 21 20 19 17 16 15 15 14 15 15 14 12 12 12
36 36 35 35 34 35 35 33 31 29 25 25 23 13 8 6 6 7 8 8 9 13 17 20 19 21 24 22 22 20 19 19 17 17 16 15 14 14 13 13 11 12 11
36 36 35 36 35 37 36 36 34 29 21 30 8 8 2 2 3 5 6 8 12 15 20 21 22 27 27 25 22 21 20 19 17 17 16 14 14 13 13 13 11 11 10
37 35 36 38 38 38 40 39 38 33 23 31 19 7 3 4 5 4 7 9 11 17 23 23 28 30 28 25 24 21 20 20 18 17 15 14 14 13 12 12 10 11 10
38 39 38 41 41 40 41 43 42 38 24 27 26 14 8 10 4 3 6 10 13 17 21 24 31 32 29 26 25 24 22 20 19 17 16 14 13 13 12 12 11 10 10
39 40 42 42 42 42 43 45 44 42 34 27 24 20 12 11 9 4 3 8 13 17 22 29 35 32 29 26 26 25 24 22 19 19 17 15 14 13 12 12 11 11 11
36 41 43 43 43 43 45 45 45 45 42 36 35 31 25 11 10 6 3 5 10 18 20 25 27 28 28 28 26 26 24 22 20 20 18 17 17 16 13 12 12 12 11
28 35 42 45 45 45 46 46 47 47 46 41 37 39 34 30 19 16 7 7 5 10 14 24 27 28 30 28 28 27 27 24 22 21 20 20 21 20 17 14 13 13 12
32 34 39 40 45 46 46 46 45 46 46 45 38 39 41 36 29 29 18 17 2 5 11 10 31 32 31 31 29 27 26 25 24 22 20 23 24 24 20 17 15 14 13
30 34 38 43 41 41 46 47 45 43 44 45 43 43 41 42 38 29 31 30 15 7 9 21 17 37 36 36 33 31 27 27 24 25 23 20 24 26 21 21 19 17 16
28 33 39 39 40 39 40 43 41 40 39 41 41 41 44 37 43 39 33 32 29 16 8 31 40 34 43 40 38 36 33 30 31 30 27 29 26 27 24 24 24 21 19
13 25 32 36 37 40 43 41 37 37 42 40 40 40 43 41 40 44 38 37 37 32 17 18 35 35 42 45 42 40 38 37 36 34 32 32 31 31 28 26 26 25 21
9 11 17 31 38 41 42 43 43 39 38 39 40 40 42 39 41 40 42 42 40 41 29 20 28 37 37 46 46 42 41 40 38 37 36 35 33 34 34 31 29 27 24
13 13 12 14 30 35 39 44 46 43 44 47 44 42 42 39 40 38 39 39 40 38 43 29 24 30 40 37 40 42 43 43 41 40 38 36 35 34 36 33 32 28 28
14 15 15 15 16 21 40 42 41 43 41 44 44 45 45 42 43 43 40 42 39 36 39 33 27 24 27 37 34 37 35 46 45 42 40 40 38 37 37 36 34 31 31
15 14 16 17 18 22 15 31 41 44 43 44 44 43 47 50 48 48 44 43 41 38 34 31 26 24 24 22 34 36 34 32 40 43 39 41 42 41 39 37 35 33 32
20 16 15 19 19 21 23 21 14 33 45 44 41 43 45 45 52 55 56 51 52 47 41 36 33 30 32 36 36 35 33 20 13 45 44 39 44 43 43 40 39 36 33
24 20 18 18 20 22 24 21 21 20 25 36 40 40 40 43 50 51 57 59 60 59 58 48 45 42 40 42 44 36 37 36 30 28 46 32 40 41 45 43 41 37 35
24 23 21 21 22 22 23 24 22 21 26 25 28 40 42 44 46 49 46 44 52 50 57 55 53 51 53 47 54 56 51 37 24 22 34 22 34 35 39 43 39 36 35
25 23 23 22 22 23 19 21 21 21 24 29 29 28 28 38 44 49 47 41 40 47 54 57 49 44 41 44 50 37 29 32 19 21 37 25 27 29 33 39 42 40 35
21 22 23 21 20 23 20 16 17 20 23 27 28 28 31 33 36 40 46 40 34 42 40 41 52 55 49 45 49 47 44 35 27 15 37 33 26 27 9 30 42 42 38
Wind_Direction
172 178 177 174 175 176 170 167 166 161 156 151 144 144 138 140 147 152 155 159 155 154 152 157 159 155 151 146 143 146 147 144 137 133 130 126 115 109 105 98 93 87 82
180 183 180 178 181 180 174 173 170 164 155 153 147 148 146 150 153 158 160 163 163 163 165 166 163 161 156 153 152 155 148 149 143 133 129 118 111 104 99 96 91 89 91
187 188 184 180 185 180 178 176 172 168 160 157 154 154 154 159 162 162 163 167 171 174 176 174 167 168 163 157 154 153 145 143 140 136 127 122 119 113 106 96 96 93 87
192 190 190 188 188 182 180 176 173 167 165 164 158 157 162 166 169 172 174 178 181 184 185 185 181 174 168 161 154 150 146 144 140 135 129 127 125 114 108 103 101 97 89
197 198 194 188 188 183 181 179 172 173 165 161 160 156 159 166 173 184 194 199 198 199 200 196 188 182 178 166 157 149 144 145 143 137 134 120 118 113 111 110 108 101 96
199 199 197 190 190 184 184 179 176 172 168 164 154 152 155 166 184 191 206 214 212 202 198 196 186 187 183 170 164 153 156 152 146 140 136 132 124 120 115 115 113 108 102
202 200 196 191 192 191 190 186 176 174 163 165 141 117 117 147 195 200 207 216 219 208 192 195 189 185 179 171 164 167 155 148 149 144 141 138 131 126 125 123 122 115 109
208 206 202 196 196 194 193 190 184 170 174 172 158 132 144 134 181 192 197 205 201 203 201 212 192 182 173 169 172 171 161 153 151 146 143 147 139 136 134 132 129 126 123
210 210 206 202 199 203 198 196 193 185 173 185 177 159 152 196 149 194 191 200 194 189 179 191 194 182 179 177 175 175 167 159 156 153 155 153 148 145 147 144 142 139 133
211 209 212 207 203 206 205 202 200 197 189 185 192 201 181 148 166 173 206 198 188 186 189 186 182 185 185 184 181 174 172 165 162 161 161 158 155 158 157 157 157 149 143
213 212 211 209 208 209 210 208 203 201 203 197 192 192 190 181 162 144 164 196 198 190 191 190 184 180 184 185 179 179 176 175 171 169 169 167 168 167 167 167 168 164 161
207 213 213 214 215 213 213 214 211 209 208 212 207 207 196 175 187 163 144 164 186 193 190 184 183 182 185 185 186 184 181 182 186 182 184 184 182 179 177 176 174 172 171
206 204 210 212 214 218 217 218 215 214 214 215 216 217 218 213 208 198 153 158 157 191 205 198 192 188 188 190 188 189 188 189 195 196 196 196 190 186 184 185 186 181 182
219 214 215 215 217 221 218 219 218 217 217 220 221 222 223 224 222 212 187 165 133 198 198 194 202 197 195 195 195 195 198 201 205 207 206 203 198 195 200 193 193 192 189
229 224 228 218 218 217 218 221 218 218 219 222 223 227 226 227 226 224 216 199 178 186 217 214 195 206 202 200 199 202 210 212 218 213 220 216 203 198 206 215 212 200 199
234 225 218 222 219 222 220 219 217 220 219 221 223 224 228 225 229 228 226 222 209 201 210 209 209 209 208 206 204 207 211 217 217 218 221 224 223 207 212 212 218 204 201
251 249 232 228 227 227 222 220 219 218 221 222 224 223 226 224 228 228 228 227 222 218 222 198 215 210 210 211 211 212 214 213 217 220 223 223 226 228 225 228 223 215 213
288 269 258 242 231 225 223 224 226 224 222 221 221 220 226 223 224 227 226 226 227 225 218 216 215 213 213 217 218 217 218 218 220 221 223 225 226 227 228 230 229 227 218
311 294 283 273 239 229 225 227 228 226 224 225 223 220 222 220 220 220 221 223 224 225 224 224 218 214 217 217 217 221 222 222 222 224 225 226 228 228 228 230 227 227 224
328 316 301 285 281 260 230 224 229 226 231 226 226 222 224 222 221 219 217 221 221 220 224 220 223 212 213 218 217 212 217 222 222 222 224 225 226 227 227 228 227 228 223
330 324 320 303 292 285 278 244 234 226 220 223 225 228 228 233 233 227 220 215 217 217 216 215 214 209 205 201 203 211 215 217 218 221 216 218 221 222 222 225 224 224 222
332 333 326 316 312 302 289 267 274 243 225 224 222 223 231 229 233 231 228 223 218 214 215 213 215 218 215 213 209 204 203 196 208 218 213 213 214 215 218 214 217 224 224
341 340 333 326 312 303 308 304 281 279 269 232 232 234 234 235 239 231 230 232 225 224 224 216 217 217 217 216 216 202 203 207 217 213 203 211 211 212 214 215 218 220 213
341 339 340 334 323 313 313 311 305 281 275 269 249 238 233 232 233 236 234 228 227 228 223 223 224 226 228 226 221 222 214 207 209 217 206 207 211 210 213 216 218 216 210
339 338 335 337 332 320 318 316 310 298 283 272 263 259 252 241 236 234 229 228 226 227 234 232 231 234 232 227 226 200 191 187 203 195 204 202 200 203 212 211 215 215 209
332 334 332 334 333 323 325 316 309 300 291 285 278 264 260 260 249 240 232 227 228 231 227 228 234 230 230 227 225 229 207 199 206 194 201 198 186 187 190 211 211 205 205